map of ASK home
ASK - Airport
Location
City:  Yamoussoukro, Lacs, Côte d'Ivoire (Ivory Coast)
ICAO:DIYO
IATA:ASK

Details
Type:Airport (Aerodrome, Airfield)
Use:Public/Civil, International (customs port of entry)
Latitude:6°54'11"N (6.903167)
Longitude:5°21'56"W (-5.365580)
Datum:WGS 1984
Elevation:699 ft (213 m)
Variation:4.64°W (WMM2015 magnetic declination)
0.10° annual change
Runways:1
Longest:9843 × 148 ft (3000 × 45 m), paved

Time
Time Zone:UTC+0
Local Time:

Weather
METAR:DIYO 280000Z 00000KT 9999 SCT010 BKN100 23/22 Q1015 NOSIG
TAF:DIYO 272300Z 2800/2824 21010KT 8000 BKN011 FEW020CB PROB30
TEMPO 2800/2803 TS
BECMG 2804/2805 VRB02KT NSW FEW011 PROB30
TEMPO 2805/2808 4000 BR
TEMPO 2808/2812 BKN011
BECMG 2810/2811 22010KT

Related Locations
Nearby:
Farthest:FUN: 12116 mi / 19498 km
Funafuti Atoll [Intl], TV

Find:

   beyond  
but within

Other Information
Maps:
NOTAMs:
Links:
Sources:

  
flag of Côte d'Ivoire (Ivory Coast)   

Sectional Chart

Flight Planning
at skyvector.com

Satellite Image

Google Maps Satellite view

 

Copyright © 2004-2018 Karl L. Swartz. All rights reserved.
The Great Circle Mapper name and logo are trademarks of the Great Circle Mapper.
All other trademarks mentioned herein belong to their respective owners.
Please see credits for attibutions and further copyright information.

  Follow gcmap on Facebook Follow gcmap on Twitter Follow gcmap on Google+ GCmap on LinkedIn

hCard Microformat

Geo Microformat